| time (UTC) | temp F | wind direction | speed MPH | gust MPH | rain 1hr in | rain 24hr in | rain mn in | humidity % | barometer mb |
| 20260901095004 | 71 | 138 | 0.0 | 2.0 | 0.00 | 0.00 | 0.00 | 91 | 1018.8 |
| 20260901094507 | 71 | 138 | 0.0 | 2.0 | 0.00 | 0.00 | 0.00 | 90 | 1018.8 |
| 20260901094004 | 71 | 138 | 0.0 | 2.0 | 0.00 | 0.00 | 0.00 | 90 | 1018.7 |
| 20260901093503 | 71 | 138 | 0.0 | 2.0 | 0.00 | 0.00 | 0.00 | 90 | 1018.7 |
| 20260901093003 | 71 | 138 | 1.0 | 2.0 | 0.00 | 0.00 | 0.00 | 90 | 1018.8 |
| 20260901092503 | 71 | 136 | 1.0 | 2.0 | 0.00 | 0.00 | 0.00 | 90 | 1018.7 |
| 20260901092004 | 71 | 109 | 0.0 | 2.0 | 0.00 | 0.00 | 0.00 | 90 | 1018.7 |
| 20260901091507 | 71 | 109 | 0.0 | 2.0 | 0.00 | 0.00 | 0.00 | 90 | 1018.6 |
| 20260901091004 | 71 | 119 | 0.0 | 2.0 | 0.00 | 0.00 | 0.00 | 90 | 1018.6 |
| 20260901090504 | 71 | 119 | 1.0 | 3.0 | 0.00 | 0.00 | 0.00 | 90 | 1018.6 |
| 20260901090013 | 71 | 124 | 2.0 | 3.0 | 0.00 | 0.00 | 0.00 | 90 | 1018.5 |
| 20260901085507 | 71 | 115 | 1.0 | 3.0 | 0.00 | 0.00 | 0.00 | 90 | 1018.7 |
| 20260901085003 | 71 | 126 | 2.0 | 2.0 | 0.00 | 0.00 | 0.00 | 90 | 1018.7 |
| 20260901084507 | 71 | 126 | 1.0 | 2.0 | 0.00 | 0.00 | 0.00 | 90 | 1018.6 |
| 20260901084007 | 71 | 126 | 2.0 | 2.0 | 0.00 | 0.00 | 0.00 | 90 | 1018.5 |
| 20260901083506 | 72 | 126 | 1.0 | 2.0 | 0.00 | 0.00 | 0.00 | 90 | 1018.5 |
| 20260901083012 | 72 | 251 | 0.0 | 2.0 | 0.00 | 0.00 | 0.00 | 89 | 1018.6 |
| 20260901082505 | 72 | 146 | 0.0 | 2.0 | 0.00 | 0.00 | 0.00 | 89 | 1018.6 |
| 20260901082008 | 72 | 107 | 1.0 | 2.0 | 0.00 | 0.00 | 0.00 | 89 | 1018.5 |
| 20260901081512 | 72 | 117 | 1.0 | 2.0 | 0.00 | 0.00 | 0.00 | 89 | 1018.6 |
| 20260901081004 | 72 | 117 | 0.0 | 2.0 | 0.00 | 0.00 | 0.00 | 89 | 1018.5 |
| 20260901080507 | 72 | 118 | 0.0 | 2.0 | 0.00 | 0.00 | 0.00 | 89 | 1018.4 |
| 20260901080012 | 72 | 117 | 1.0 | 2.0 | 0.00 | 0.00 | 0.00 | 89 | 1018.3 |
| 20260901075507 | 72 | 119 | 0.0 | 2.0 | 0.00 | 0.00 | 0.00 | 89 | 1018.3 |
| 20260901075006 | 72 | 118 | 0.0 | 2.0 | 0.00 | 0.00 | 0.00 | 89 | 1018.2 |
| 20260901074512 | 72 | 118 | 1.0 | 2.0 | 0.00 | 0.00 | 0.00 | 89 | 1018.2 |
| 20260901074003 | 72 | 117 | 1.0 | 2.0 | 0.00 | 0.00 | 0.00 | 89 | 1018.3 |
| 20260901073505 | 72 | 117 | 1.0 | 3.0 | 0.00 | 0.00 | 0.00 | 89 | 1018.4 |
| 20260901073019 | 72 | 106 | 2.0 | 3.0 | 0.00 | 0.00 | 0.00 | 88 | 1018.3 |
| 20260901072507 | 72 | 113 | 2.0 | 2.0 | 0.00 | 0.00 | 0.00 | 88 | 1018.2 |
| 20260901072006 | 72 | 57 | 1.0 | 2.0 | 0.00 | 0.00 | 0.00 | 87 | 1018.2 |
| 20260901071514 | 72 | 57 | 1.0 | 2.0 | 0.00 | 0.00 | 0.00 | 87 | 1018.2 |
| 20260901071007 | 72 | 57 | 0.0 | 2.0 | 0.00 | 0.00 | 0.00 | 87 | 1018.3 |
| 20260901070504 | 73 | 57 | 0.0 | 2.0 | 0.00 | 0.00 | 0.00 | 87 | 1018.4 |
| 20260901070007 | 73 | 57 | 0.0 | 2.0 | 0.00 | 0.00 | 0.00 | 86 | 1018.5 |
| 20260901065509 | 73 | 57 | 0.0 | 2.0 | 0.00 | 0.00 | 0.00 | 86 | 1018.5 |
| 20260901065003 | 73 | 57 | 1.0 | 2.0 | 0.00 | 0.00 | 0.00 | 86 | 1018.5 |
| 20260901064506 | 73 | 57 | 0.0 | 2.0 | 0.00 | 0.00 | 0.00 | 86 | 1018.4 |
| 20260901064002 | 73 | 57 | 1.0 | 3.0 | 0.00 | 0.00 | 0.00 | 86 | 1018.6 |
| 20260901063501 | 73 | 88 | 1.0 | 3.0 | 0.00 | 0.00 | 0.00 | 86 | 1018.6 |
| 20260901063003 | 73 | 70 | 2.0 | 3.0 | 0.00 | 0.00 | 0.00 | 85 | 1018.5 |
| 20260901062503 | 74 | 76 | 2.0 | 4.0 | 0.00 | 0.00 | 0.00 | 85 | 1018.6 |
| 20260901062003 | 74 | 94 | 2.0 | 4.0 | 0.00 | 0.00 | 0.00 | 85 | 1018.5 |
| 20260901061504 | 74 | 109 | 1.0 | 3.0 | 0.00 | 0.00 | 0.00 | 84 | 1018.5 |
| 20260901061004 | 74 | 121 | 2.0 | 3.0 | 0.00 | 0.00 | 0.00 | 84 | 1018.3 |
| 20260901060503 | 74 | 113 | 1.0 | 3.0 | 0.00 | 0.00 | 0.00 | 84 | 1018.3 |
| 20260901060011 | 74 | 110 | 2.0 | 3.0 | 0.00 | 0.00 | 0.00 | 84 | 1018.3 |
| 20260901055503 | 74 | 121 | 2.0 | 4.0 | 0.00 | 0.00 | 0.00 | 84 | 1018.2 |
| 20260901055003 | 74 | 115 | 2.0 | 4.0 | 0.00 | 0.00 | 0.00 | 84 | 1018.3 |
| 20260901054506 | 74 | 116 | 3.0 | 4.0 | 0.00 | 0.00 | 0.00 | 85 | 1018.4 |
| 20260901054003 | 73 | 106 | 2.0 | 3.0 | 0.00 | 0.00 | 0.00 | 85 | 1018.5 |
| 20260901053502 | 73 | 129 | 2.0 | 3.0 | 0.00 | 0.00 | 0.00 | 86 | 1018.5 |
| 20260901053003 | 73 | 117 | 1.0 | 2.0 | 0.00 | 0.00 | 0.00 | 86 | 1018.4 |
| 20260901052502 | 73 | 101 | 1.0 | 2.0 | 0.00 | 0.00 | 0.00 | 86 | 1018.5 |
| 20260901052002 | 73 | 142 | 0.0 | 3.0 | 0.00 | 0.00 | 0.00 | 85 | 1018.6 |
| 20260901051504 | 73 | 122 | 1.0 | 3.0 | 0.00 | 0.00 | 0.00 | 86 | 1018.5 |
| 20260901051004 | 74 | 101 | 2.0 | 3.0 | 0.00 | 0.00 | 0.00 | 86 | 1018.4 |
| 20260901050504 | 74 | 121 | 2.0 | 3.0 | 0.00 | 0.00 | 0.00 | 85 | 1018.5 |
| 20260901050004 | 74 | 127 | 2.0 | 3.0 | 0.00 | 0.00 | 0.00 | 85 | 1018.6 |
| 20260901045504 | 74 | 107 | 2.0 | 2.0 | 0.00 | 0.00 | 0.00 | 85 | 1018.6 |
| 20260901045004 | 74 | 107 | 2.0 | 2.0 | 0.00 | 0.00 | 0.00 | 85 | 1018.6 |
| 20260901044506 | 74 | 119 | 1.0 | 2.0 | 0.00 | 0.00 | 0.00 | 85 | 1018.5 |
| 20260901044007 | 74 | 127 | 1.0 | 3.0 | 0.00 | 0.00 | 0.00 | 85 | 1018.6 |
| 20260901043503 | 74 | 125 | 1.0 | 3.0 | 0.00 | 0.00 | 0.00 | 85 | 1018.6 |
| 20260901043018 | 74 | 128 | 2.0 | 2.0 | 0.00 | 0.00 | 0.00 | 85 | 1018.6 |
| 20260901042502 | 74 | 117 | 1.0 | 2.0 | 0.00 | 0.00 | 0.00 | 85 | 1018.6 |
| 20260901042002 | 74 | 117 | 1.0 | 2.0 | 0.00 | 0.00 | 0.00 | 85 | 1018.8 |
| 20260901041504 | 74 | 107 | 1.0 | 2.0 | 0.00 | 0.00 | 0.00 | 85 | 1018.9 |
| 20260901041004 | 74 | 107 | 1.0 | 2.0 | 0.00 | 0.00 | 0.00 | 85 | 1018.8 |
| 20260901040504 | 74 | 121 | 1.0 | 1.0 | 0.00 | 0.00 | 0.00 | 84 | 1018.7 |
| 20260901040007 | 75 | 121 | 0.0 | 2.0 | 0.00 | 0.00 | 0.00 | 84 | 1018.8 |
| 20260901035503 | 75 | 121 | 1.0 | 2.0 | 0.00 | 0.00 | 0.00 | 84 | 1018.9 |
| 20260901035003 | 75 | 112 | 1.0 | 2.0 | 0.00 | 0.00 | 0.00 | 84 | 1018.8 |
| 20260901034511 | 75 | 112 | 1.0 | 3.0 | 0.00 | 0.00 | 0.00 | 84 | 1018.8 |
| 20260901034003 | 75 | 112 | 1.0 | 3.0 | 0.00 | 0.00 | 0.00 | 84 | 1018.7 |
| 20260901033505 | 75 | 112 | 1.0 | 2.0 | 0.00 | 0.00 | 0.00 | 84 | 1018.8 |
| 20260901033009 | 75 | 111 | 1.0 | 2.0 | 0.00 | 0.00 | 0.00 | 83 | 1018.8 |
| 20260901032508 | 75 | 112 | 1.0 | 2.0 | 0.00 | 0.00 | 0.00 | 83 | 1018.9 |
| 20260901032009 | 75 | 112 | 1.0 | 3.0 | 0.00 | 0.00 | 0.00 | 83 | 1018.9 |
| 20260901031511 | 75 | 112 | 1.0 | 3.0 | 0.00 | 0.00 | 0.00 | 83 | 1019.0 |
| 20260901031011 | 75 | 112 | 2.0 | 3.0 | 0.00 | 0.00 | 0.00 | 83 | 1018.9 |
| 20260901030505 | 75 | 115 | 1.0 | 2.0 | 0.00 | 0.00 | 0.00 | 83 | 1018.9 |
| 20260901030003 | 75 | 111 | 1.0 | 2.0 | 0.00 | 0.00 | 0.00 | 82 | 1018.9 |
| 20260901025504 | 76 | 103 | 1.0 | 2.0 | 0.00 | 0.00 | 0.00 | 82 | 1019.0 |
| 20260901025006 | 76 | 113 | 1.0 | 2.0 | 0.00 | 0.00 | 0.00 | 81 | 1019.0 |
| 20260901024503 | 76 | 103 | 1.0 | 2.0 | 0.00 | 0.00 | 0.00 | 81 | 1019.1 |
| 20260901024006 | 76 | 122 | 1.0 | 2.0 | 0.00 | 0.00 | 0.00 | 80 | 1019.0 |
| 20260901023503 | 76 | 122 | 0.0 | 2.0 | 0.00 | 0.00 | 0.00 | 80 | 1019.0 |
| 20260901023008 | 77 | 122 | 0.0 | 2.0 | 0.00 | 0.00 | 0.00 | 79 | 1019.0 |
| 20260901022506 | 77 | 122 | 0.0 | 2.0 | 0.00 | 0.00 | 0.00 | 79 | 1018.9 |
| 20260901022005 | 77 | 122 | 0.0 | 2.0 | 0.00 | 0.00 | 0.00 | 78 | 1019.0 |
| 20260901021519 | 78 | 122 | 0.0 | 3.0 | 0.00 | 0.00 | 0.00 | 77 | 1019.0 |
| 20260901021004 | 78 | 92 | 2.0 | 3.0 | 0.00 | 0.00 | 0.00 | 77 | 1018.9 |
| 20260901020513 | 78 | 92 | 1.0 | 3.0 | 0.00 | 0.00 | 0.00 | 76 | 1019.0 |
| 20260901020012 | 78 | 85 | 2.0 | 4.0 | 0.00 | 0.00 | 0.00 | 76 | 1018.9 |
| 20260901015503 | 79 | 83 | 2.0 | 4.0 | 0.00 | 0.00 | 0.00 | 75 | 1018.9 |
| 20260901015002 | 79 | 88 | 2.0 | 4.0 | 0.00 | 0.00 | 0.00 | 75 | 1018.7 |
| 20260901014503 | 79 | 89 | 3.0 | 4.0 | 0.00 | 0.00 | 0.00 | 74 | 1018.6 |
| 20260901014004 | 79 | 82 | 2.0 | 4.0 | 0.00 | 0.00 | 0.00 | 74 | 1018.6 |
| 20260901013503 | 80 | 93 | 3.0 | 5.0 | 0.00 | 0.00 | 0.00 | 73 | 1018.5 |
| 20260901013011 | 80 | 85 | 3.0 | 5.0 | 0.00 | 0.00 | 0.00 | 73 | 1018.3 |
| 20260901012506 | 80 | 88 | 2.0 | 4.0 | 0.00 | 0.00 | 0.00 | 72 | 1018.1 |
| 20260901012006 | 80 | 89 | 2.0 | 4.0 | 0.00 | 0.00 | 0.00 | 72 | 1018.1 |
| 20260901011507 | 81 | 88 | 3.0 | 6.0 | 0.00 | 0.00 | 0.00 | 71 | 1018.1 |
| 20260901011007 | 81 | 87 | 3.0 | 6.0 | 0.00 | 0.00 | 0.00 | 72 | 1018.0 |
| 20260901010507 | 81 | 79 | 3.0 | 6.0 | 0.00 | 0.00 | 0.00 | 71 | 1017.9 |
| 20260901010004 | 81 | 83 | 3.0 | 5.0 | 0.00 | 0.00 | 0.00 | 71 | 1017.8 |
| 20260901005512 | 81 | 78 | 3.0 | 5.0 | 0.00 | 0.00 | 0.00 | 71 | 1017.9 |
| 20260901005007 | 82 | 74 | 3.0 | 5.0 | 0.00 | 0.00 | 0.00 | 70 | 1017.8 |
| 20260901004529 | 82 | 84 | 3.0 | 5.0 | 0.00 | 0.00 | 0.00 | 70 | 1017.8 |
| 20260901004013 | 82 | 67 | 3.0 | 5.0 | 0.00 | 0.00 | 0.00 | 69 | 1017.8 |
| 20260901003503 | 82 | 102 | 3.0 | 4.0 | 0.00 | 0.00 | 0.00 | 68 | 1017.8 |
| 20260901003003 | 83 | 84 | 3.0 | 4.0 | 0.00 | 0.00 | 0.00 | 68 | 1017.7 |
| 20260901002505 | 83 | 84 | 2.0 | 4.0 | 0.00 | 0.00 | 0.00 | 67 | 1017.6 |
| 20260901002005 | 84 | 86 | 2.0 | 4.0 | 0.00 | 0.00 | 0.00 | 65 | 1017.7 |
| 20260901001510 | 84 | 109 | 2.0 | 5.0 | 0.00 | 0.00 | 0.00 | 66 | 1017.7 |
| 20260901001008 | 84 | 84 | 2.0 | 6.0 | 0.00 | 0.00 | 0.00 | 64 | 1017.6 |
| 20260901000503 | 85 | 76 | 3.0 | 6.0 | 0.00 | 0.00 | 0.00 | 64 | 1017.6 |
| 20260901000021 | 85 | 92 | 3.0 | 6.0 | 0.00 | 0.00 | 0.00 | 64 | 1017.7 |
| 20260831235503 | 86 | 71 | 3.0 | 6.0 | 0.00 | 0.00 | 0.00 | 63 | 1017.7 |
| 20260831235006 | 86 | 78 | 2.0 | 4.0 | 0.00 | 0.00 | 0.00 | 63 | 1017.7 |
| 20260831234510 | 87 | 94 | 1.0 | 4.0 | 0.00 | 0.00 | 0.00 | 62 | 1017.7 |
| 20260831234003 | 87 | 123 | 1.0 | 4.0 | 0.00 | 0.00 | 0.00 | 59 | 1017.7 |
| 20260831233507 | 88 | 109 | 2.0 | 4.0 | 0.00 | 0.00 | 0.00 | 59 | 1017.7 |
| 20260831233006 | 88 | 92 | 2.0 | 7.0 | 0.00 | 0.00 | 0.00 | 57 | 1017.8 |
| 20260831232506 | 89 | 132 | 2.0 | 9.0 | 0.00 | 0.00 | 0.00 | 57 | 1017.8 |
| 20260831232003 | 89 | 90 | 3.0 | 9.0 | 0.00 | 0.00 | 0.00 | 55 | 1017.8 |
| 20260831231509 | 90 | 90 | 2.0 | 7.0 | 0.00 | 0.00 | 0.00 | 55 | 1017.8 |
| 20260831231004 | 90 | 89 | 3.0 | 6.0 | 0.00 | 0.00 | 0.00 | 54 | 1017.8 |
| 20260831230513 | 90 | 86 | 2.0 | 9.0 | 0.00 | 0.00 | 0.00 | 54 | 1017.7 |
| 20260831230008 | 90 | 95 | 4.0 | 9.0 | 0.00 | 0.00 | 0.00 | 54 | 1017.8 |
| 20260831225506 | 90 | 95 | 3.0 | 9.0 | 0.00 | 0.00 | 0.00 | 53 | 1017.7 |
| 20260831225008 | 90 | 78 | 2.0 | 7.0 | 0.00 | 0.00 | 0.00 | 54 | 1017.6 |
| 20260831224504 | 90 | 88 | 3.0 | 9.0 | 0.00 | 0.00 | 0.00 | 56 | 1017.7 |
| 20260831224010 | 89 | 67 | 2.0 | 9.0 | 0.00 | 0.00 | 0.00 | 56 | 1017.7 |
| 20260831223504 | 89 | 47 | 3.0 | 9.0 | 0.00 | 0.00 | 0.00 | 56 | 1017.7 |
| 20260831223003 | 89 | 84 | 2.0 | 5.0 | 0.00 | 0.00 | 0.00 | 56 | 1017.7 |
| 20260831222505 | 89 | 77 | 3.0 | 5.0 | 0.00 | 0.00 | 0.00 | 55 | 1017.7 |
| 20260831222008 | 89 | 67 | 3.0 | 9.0 | 0.00 | 0.00 | 0.00 | 54 | 1017.7 |
| 20260831221517 | 90 | 80 | 4.0 | 9.0 | 0.00 | 0.00 | 0.00 | 53 | 1017.8 |
| 20260831221005 | 91 | 77 | 5.0 | 9.0 | 0.00 | 0.00 | 0.00 | 51 | 1017.8 |
| 20260831220503 | 92 | 63 | 5.0 | 9.0 | 0.00 | 0.00 | 0.00 | 49 | 1017.8 |
| 20260831220020 | 93 | 111 | 5.0 | 13.0 | 0.00 | 0.00 | 0.00 | 48 | 1017.8 |
| 20260831215509 | 94 | 93 | 5.0 | 13.0 | 0.00 | 0.00 | 0.00 | 47 | 1017.7 |
| 20260831215007 | 94 | 121 | 3.0 | 4.0 | 0.00 | 0.00 | 0.00 | 45 | 1017.7 |
| 20260831214516 | 94 | 272 | 1.0 | 6.0 | 0.00 | 0.00 | 0.00 | 48 | 1017.7 |
| 20260831214006 | 93 | 286 | 1.0 | 7.0 | 0.00 | 0.00 | 0.00 | 48 | 1017.7 |
| 20260831213513 | 93 | 54 | 4.0 | 7.0 | 0.00 | 0.00 | 0.00 | 47 | 1017.8 |
| 20260831213031 | 93 | 124 | 3.0 | 6.0 | 0.00 | 0.00 | 0.00 | 45 | 1017.8 |
| 20260831212504 | 93 | 77 | 1.0 | 9.0 | 0.00 | 0.00 | 0.00 | 46 | 1017.9 |
| 20260831212014 | 93 | 76 | 5.0 | 11.0 | 0.00 | 0.00 | 0.00 | 46 | 1018.1 |
| 20260831211507 | 93 | 87 | 7.0 | 11.0 | 0.00 | 0.00 | 0.00 | 45 | 1018.1 |
| 20260831211004 | 93 | 65 | 3.0 | 10.0 | 0.00 | 0.00 | 0.00 | 47 | 1018.1 |
| 20260831210504 | 93 | 90 | 6.0 | 10.0 | 0.00 | 0.00 | 0.00 | 45 | 1018.1 |
| 20260831210010 | 93 | 103 | 5.0 | 10.0 | 0.00 | 0.00 | 0.00 | 48 | 1018.0 |
| 20260831205506 | 93 | 97 | 2.0 | 9.0 | 0.00 | 0.00 | 0.00 | 47 | 1018.1 |
| 20260831205008 | 93 | 83 | 5.0 | 9.0 | 0.00 | 0.00 | 0.00 | 46 | 1018.1 |
| 20260831204508 | 93 | 82 | 3.0 | 9.0 | 0.00 | 0.00 | 0.00 | 47 | 1018.1 |
| 20260831204010 | 92 | 57 | 4.0 | 12.0 | 0.00 | 0.00 | 0.00 | 50 | 1018.2 |
| 20260831203508 | 92 | 82 | 5.0 | 12.0 | 0.00 | 0.00 | 0.00 | 49 | 1018.2 |
| 20260831203006 | 92 | 85 | 6.0 | 12.0 | 0.00 | 0.00 | 0.00 | 48 | 1018.2 |
| 20260831202512 | 91 | 93 | 6.0 | 12.0 | 0.00 | 0.00 | 0.00 | 50 | 1018.2 |
| 20260831202004 | 91 | 79 | 6.0 | 10.0 | 0.00 | 0.00 | 0.00 | 51 | 1018.3 |
| 20260831201526 | 91 | 62 | 4.0 | 9.0 | 0.00 | 0.00 | 0.00 | 52 | 1018.4 |
| 20260831201008 | 91 | 65 | 5.0 | 9.0 | 0.00 | 0.00 | 0.00 | 50 | 1018.5 |
| 20260831200503 | 92 | 152 | 6.0 | 12.0 | 0.00 | 0.00 | 0.00 | 50 | 1018.7 |
| 20260831200003 | 92 | 94 | 6.0 | 12.0 | 0.00 | 0.00 | 0.00 | 50 | 1018.7 |
| 20260831195503 | 92 | 72 | 3.0 | 8.0 | 0.00 | 0.00 | 0.00 | 54 | 1018.7 |
| 20260831195004 | 92 | 71 | 5.0 | 8.0 | 0.00 | 0.00 | 0.00 | 52 | 1018.8 |
| 20260831194511 | 92 | 71 | 2.0 | 9.0 | 0.00 | 0.00 | 0.00 | 53 | 1019.0 |
| 20260831194004 | 91 | 62 | 6.0 | 9.0 | 0.00 | 0.00 | 0.00 | 52 | 1019.1 |
| 20260831193507 | 91 | 72 | 3.0 | 8.0 | 0.00 | 0.00 | 0.00 | 53 | 1019.0 |
| 20260831193017 | 91 | 143 | 6.0 | 9.0 | 0.00 | 0.00 | 0.00 | 52 | 1019.0 |
| 20260831192504 | 91 | 113 | 7.0 | 9.0 | 0.00 | 0.00 | 0.00 | 51 | 1019.0 |
| 20260831192010 | 91 | 45 | 2.0 | 8.0 | 0.00 | 0.00 | 0.00 | 52 | 1019.1 |
| 20260831191516 | 91 | 360 | 4.0 | 8.0 | 0.00 | 0.00 | 0.00 | 55 | 1019.1 |
| 20260831191014 | 91 | 345 | 3.0 | 8.0 | 0.00 | 0.00 | 0.00 | 52 | 1019.1 |
| 20260831190513 | 92 | 126 | 3.0 | 10.0 | 0.00 | 0.00 | 0.00 | 51 | 1019.2 |
| 20260831190014 | 92 | 118 | 4.0 | 10.0 | 0.00 | 0.00 | 0.00 | 50 | 1019.2 |
| 20260831185514 | 92 | 92 | 6.0 | 9.0 | 0.00 | 0.00 | 0.00 | 50 | 1019.2 |
| 20260831185014 | 92 | 169 | 4.0 | 9.0 | 0.00 | 0.00 | 0.00 | 51 | 1019.3 |
| 20260831184508 | 91 | 134 | 5.0 | 12.0 | 0.00 | 0.00 | 0.00 | 48 | 1019.4 |
| 20260831184004 | 92 | 117 | 9.0 | 12.0 | 0.00 | 0.00 | 0.00 | 47 | 1019.5 |
| 20260831183504 | 92 | 129 | 3.0 | 12.0 | 0.00 | 0.00 | 0.00 | 50 | 1019.5 |
| 20260831183014 | 92 | 131 | 5.0 | 11.0 | 0.00 | 0.00 | 0.00 | 51 | 1019.6 |
| 20260831182510 | 92 | 132 | 3.0 | 11.0 | 0.00 | 0.00 | 0.00 | 51 | 1019.7 |
| 20260831182008 | 91 | 177 | 3.0 | 11.0 | 0.00 | 0.00 | 0.00 | 51 | 1019.8 |
| 20260831181519 | 91 | 124 | 5.0 | 11.0 | 0.00 | 0.00 | 0.00 | 52 | 1019.8 |
| 20260831181011 | 90 | 105 | 3.0 | 7.0 | 0.00 | 0.00 | 0.00 | 54 | 1020.1 |
| 20260831180505 | 90 | 42 | 2.0 | 7.0 | 0.00 | 0.00 | 0.00 | 59 | 1020.1 |
| 20260831180033 | 90 | 68 | 2.0 | 6.0 | 0.00 | 0.00 | 0.00 | 55 | 1020.1 |
| 20260831175511 | 89 | 80 | 2.0 | 8.0 | 0.00 | 0.00 | 0.00 | 56 | 1020.1 |
| 20260831175012 | 89 | 96 | 2.0 | 8.0 | 0.00 | 0.00 | 0.00 | 56 | 1020.1 |
| 20260831174527 | 90 | 191 | 2.0 | 9.0 | 0.00 | 0.00 | 0.00 | 55 | 1020.1 |
| 20260831174011 | 90 | 71 | 3.0 | 9.0 | 0.00 | 0.00 | 0.00 | 56 | 1020.1 |
| 20260831173516 | 90 | 155 | 4.0 | 9.0 | 0.00 | 0.00 | 0.00 | 54 | 1020.2 |
| 20260831173023 | 90 | 107 | 6.0 | 8.0 | 0.00 | 0.00 | 0.00 | 53 | 1020.1 |
| 20260831172507 | 90 | 142 | 1.0 | 8.0 | 0.00 | 0.00 | 0.00 | 57 | 1020.2 |
| 20260831172006 | 89 | 171 | 1.0 | 8.0 | 0.00 | 0.00 | 0.00 | 56 | 1020.3 |
| 20260831171516 | 89 | 122 | 4.0 | 8.0 | 0.00 | 0.00 | 0.00 | 54 | 1020.5 |
| 20260831171009 | 89 | 134 | 3.0 | 10.0 | 0.00 | 0.00 | 0.00 | 55 | 1020.6 |
| 20260831170509 | 89 | 75 | 6.0 | 10.0 | 0.00 | 0.00 | 0.00 | 53 | 1020.6 |
| 20260831170026 | 90 | 58 | 3.0 | 8.0 | 0.00 | 0.00 | 0.00 | 56 | 1020.6 |
| 20260831165514 | 90 | 188 | 2.0 | 8.0 | 0.00 | 0.00 | 0.00 | 54 | 1020.7 |
| 20260831165013 | 90 | 186 | 1.0 | 7.0 | 0.00 | 0.00 | 0.00 | 57 | 1020.7 |
| 20260831164512 | 90 | 12 | 3.0 | 9.0 | 0.00 | 0.00 | 0.00 | 55 | 1020.8 |
| 20260831164019 | 90 | 49 | 3.0 | 9.0 | 0.00 | 0.00 | 0.00 | 60 | 1020.9 |
| 20260831163512 | 90 | 119 | 3.0 | 8.0 | 0.00 | 0.00 | 0.00 | 60 | 1020.9 |
| 20260831163031 | 89 | 223 | 1.0 | 8.0 | 0.00 | 0.00 | 0.00 | 61 | 1020.9 |
| 20260831162514 | 89 | 78 | 4.0 | 9.0 | 0.00 | 0.00 | 0.00 | 61 | 1021.1 |
| 20260831162011 | 89 | 89 | 4.0 | 12.0 | 0.00 | 0.00 | 0.00 | 61 | 1021.1 |
| 20260831161533 | 88 | 124 | 5.0 | 12.0 | 0.00 | 0.00 | 0.00 | 60 | 1021.2 |
| 20260831161006 | 88 | 84 | 7.0 | 10.0 | 0.00 | 0.00 | 0.00 | 61 | 1021.1 |
| 20260831160509 | 88 | 119 | 6.0 | 10.0 | 0.00 | 0.00 | 0.00 | 62 | 1021.1 |
| 20260831160037 | 88 | 99 | 5.0 | 10.0 | 0.00 | 0.00 | 0.00 | 59 | 1021.1 |
| 20260831155512 | 88 | 71 | 3.0 | 9.0 | 0.00 | 0.00 | 0.00 | 62 | 1021.1 |
| 20260831155012 | 87 | 169 | 3.0 | 9.0 | 0.00 | 0.00 | 0.00 | 63 | 1021.1 |
| 20260831154550 | 87 | 84 | 6.0 | 8.0 | 0.00 | 0.00 | 0.00 | 63 | 1021.1 |
| 20260831154008 | 87 | 118 | 4.0 | 9.0 | 0.00 | 0.00 | 0.00 | 65 | 1021.1 |
| 20260831153516 | 86 | 177 | 4.0 | 10.0 | 0.00 | 0.00 | 0.00 | 66 | 1021.3 |
| 20260831153051 | 86 | 134 | 4.0 | 10.0 | 0.00 | 0.00 | 0.00 | 66 | 1021.3 |
| 20260831152509 | 86 | 184 | 4.0 | 8.0 | 0.00 | 0.00 | 0.00 | 65 | 1021.3 |
| 20260831152020 | 85 | 200 | 2.0 | 10.0 | 0.00 | 0.00 | 0.00 | 70 | 1021.3 |
| 20260831151526 | 85 | 74 | 3.0 | 10.0 | 0.00 | 0.00 | 0.00 | 69 | 1021.4 |
| 20260831151002 | 85 | 109 | 2.0 | 8.0 | 0.00 | 0.00 | 0.00 | 70 | 1021.3 |
| 20260831150502 | 85 | 180 | 3.0 | 8.0 | 0.00 | 0.00 | 0.00 | 68 | 1021.2 |
| 20260831150004 | 85 | 63 | 4.0 | 7.0 | 0.00 | 0.00 | 0.00 | 68 | 1021.2 |
| 20260831145503 | 85 | 96 | 3.0 | 5.0 | 0.00 | 0.00 | 0.00 | 69 | 1021.3 |
| 20260831145003 | 85 | 225 | 3.0 | 6.0 | 0.00 | 0.00 | 0.00 | 70 | 1021.3 |
| 20260831144503 | 84 | 124 | 3.0 | 6.0 | 0.00 | 0.00 | 0.00 | 71 | 1021.2 |
| 20260831144003 | 84 | 220 | 1.0 | 4.0 | 0.00 | 0.00 | 0.00 | 71 | 1021.3 |
| 20260831143503 | 84 | 88 | 2.0 | 8.0 | 0.00 | 0.00 | 0.00 | 71 | 1021.3 |
| 20260831143007 | 83 | 100 | 3.0 | 8.0 | 0.00 | 0.00 | 0.00 | 71 | 1021.3 |
| 20260831142507 | 83 | 126 | 2.0 | 6.0 | 0.00 | 0.00 | 0.00 | 72 | 1021.3 |
| 20260831142003 | 83 | 115 | 2.0 | 7.0 | 0.00 | 0.00 | 0.00 | 73 | 1021.2 |
| 20260831141518 | 82 | 242 | 2.0 | 7.0 | 0.00 | 0.00 | 0.00 | 74 | 1021.1 |
| 20260831141003 | 82 | 163 | 3.0 | 7.0 | 0.00 | 0.00 | 0.00 | 75 | 1021.3 |
| 20260831140502 | 82 | 106 | 3.0 | 7.0 | 0.00 | 0.00 | 0.00 | 75 | 1021.3 |
| 20260831140010 | 82 | 139 | 4.0 | 7.0 | 0.00 | 0.00 | 0.00 | 76 | 1021.3 |
| 20260831135502 | 81 | 60 | 3.0 | 5.0 | 0.00 | 0.00 | 0.00 | 78 | 1021.2 |
| 20260831135003 | 81 | 112 | 3.0 | 5.0 | 0.00 | 0.00 | 0.00 | 78 | 1021.2 |
| 20260831134505 | 80 | 54 | 1.0 | 6.0 | 0.00 | 0.00 | 0.00 | 81 | 1021.1 |
| 20260831134002 | 80 | 97 | 3.0 | 8.0 | 0.00 | 0.00 | 0.00 | 80 | 1021.1 |
| 20260831133502 | 80 | 115 | 3.0 | 8.0 | 0.00 | 0.00 | 0.00 | 80 | 1021.2 |
| 20260831133003 | 79 | 86 | 1.0 | 8.0 | 0.00 | 0.00 | 0.00 | 83 | 1021.2 |
| 20260831132504 | 79 | 165 | 3.0 | 7.0 | 0.00 | 0.00 | 0.00 | 82 | 1021.1 |
| 20260831132003 | 78 | 104 | 3.0 | 7.0 | 0.00 | 0.00 | 0.00 | 82 | 1021.0 |
| 20260831131509 | 78 | 118 | 3.0 | 7.0 | 0.00 | 0.00 | 0.00 | 81 | 1021.0 |
| 20260831131006 | 78 | 136 | 0.0 | 5.0 | 0.00 | 0.00 | 0.00 | 83 | 1020.9 |
| 20260831130505 | 78 | 227 | 1.0 | 5.0 | 0.00 | 0.00 | 0.00 | 83 | 1020.8 |
| 20260831130004 | 77 | 148 | 2.0 | 5.0 | 0.00 | 0.00 | 0.00 | 85 | 1020.9 |
| 20260831125511 | 77 | 339 | 0.0 | 2.0 | 0.00 | 0.00 | 0.00 | 84 | 1020.8 |
| 20260831125003 | 76 | 344 | 1.0 | 4.0 | 0.00 | 0.00 | 0.00 | 85 | 1020.9 |
| 20260831124503 | 76 | 94 | 0.0 | 4.0 | 0.00 | 0.00 | 0.00 | 86 | 1020.7 |
| 20260831124004 | 75 | 171 | 1.0 | 7.0 | 0.00 | 0.00 | 0.00 | 87 | 1020.6 |
| 20260831123502 | 74 | 183 | 2.0 | 7.0 | 0.00 | 0.00 | 0.00 | 87 | 1020.4 |
| 20260831123005 | 74 | 137 | 1.0 | 4.0 | 0.00 | 0.00 | 0.00 | 89 | 1020.5 |
| 20260831122504 | 73 | 125 | 2.0 | 4.0 | 0.00 | 0.00 | 0.00 | 91 | 1020.5 |
| 20260831122004 | 73 | 141 | 1.0 | 2.0 | 0.00 | 0.00 | 0.00 | 91 | 1020.4 |
| 20260831121517 | 72 | 145 | 0.0 | 3.0 | 0.00 | 0.00 | 0.00 | 91 | 1020.3 |
| 20260831121009 | 72 | 155 | 1.0 | 3.0 | 0.00 | 0.00 | 0.00 | 91 | 1020.3 |
| 20260831120504 | 71 | 134 | 0.0 | 2.0 | 0.00 | 0.00 | 0.00 | 91 | 1020.3 |
| 20260831120028 | 71 | 113 | 1.0 | 2.0 | 0.00 | 0.00 | 0.00 | 91 | 1020.2 |
| 20260831115504 | 71 | 126 | 0.0 | 2.0 | 0.00 | 0.00 | 0.00 | 91 | 1020.2 |
| 20260831115009 | 71 | 76 | 1.0 | 3.0 | 0.00 | 0.00 | 0.00 | 91 | 1020.3 |
| 20260831114517 | 71 | 116 | 2.0 | 4.0 | 0.00 | 0.00 | 0.00 | 91 | 1020.3 |
| 20260831114003 | 71 | 90 | 2.0 | 4.0 | 0.00 | 0.00 | 0.00 | 91 | 1020.1 |
| 20260831113514 | 71 | 73 | 2.0 | 3.0 | 0.00 | 0.00 | 0.00 | 91 | 1020.1 |
| 20260831113010 | 71 | 103 | 2.0 | 3.0 | 0.00 | 0.00 | 0.00 | 91 | 1020.1 |
| 20260831112502 | 71 | 110 | 2.0 | 3.0 | 0.00 | 0.00 | 0.00 | 91 | 1020.0 |
| 20260831112003 | 71 | 107 | 2.0 | 3.0 | 0.00 | 0.00 | 0.00 | 91 | 1019.8 |
| 20260831111506 | 71 | 114 | 2.0 | 3.0 | 0.00 | 0.00 | 0.00 | 91 | 1019.8 |
| 20260831111003 | 71 | 111 | 1.0 | 3.0 | 0.00 | 0.00 | 0.00 | 91 | 1019.8 |
| 20260831110503 | 71 | 109 | 2.0 | 3.0 | 0.00 | 0.00 | 0.00 | 91 | 1019.7 |
| 20260831110004 | 71 | 88 | 2.0 | 3.0 | 0.00 | 0.00 | 0.00 | 92 | 1019.6 |
| 20260831105504 | 71 | 104 | 2.0 | 4.0 | 0.00 | 0.00 | 0.00 | 92 | 1019.5 |
| 20260831105007 | 71 | 93 | 2.0 | 4.0 | 0.00 | 0.00 | 0.00 | 91 | 1019.4 |
| 20260831104529 | 71 | 117 | 2.0 | 3.0 | 0.00 | 0.00 | 0.00 | 91 | 1019.4 |
| 20260831104007 | 70 | 117 | 2.0 | 3.0 | 0.00 | 0.00 | 0.00 | 91 | 1019.4 |
| 20260831103504 | 70 | 133 | 2.0 | 3.0 | 0.00 | 0.00 | 0.00 | 91 | 1019.5 |
| 20260831103021 | 70 | 109 | 2.0 | 3.0 | 0.00 | 0.00 | 0.00 | 91 | 1019.5 |
| 20260831102507 | 70 | 99 | 1.0 | 3.0 | 0.00 | 0.00 | 0.00 | 91 | 1019.4 |
| 20260831102004 | 71 | 125 | 1.0 | 2.0 | 0.00 | 0.00 | 0.00 | 91 | 1019.4 |
| 20260831101529 | 71 | 125 | 2.0 | 2.0 | 0.00 | 0.00 | 0.00 | 91 | 1019.3 |
| 20260831101005 | 71 | 125 | 2.0 | 2.0 | 0.00 | 0.00 | 0.00 | 91 | 1019.5 |
| 20260831100504 | 71 | 125 | 2.0 | 2.0 | 0.00 | 0.00 | 0.00 | 91 | 1019.4 |
| 20260831100019 | 71 | 125 | 1.0 | 2.0 | 0.00 | 0.00 | 0.00 | 91 | 1019.4 |
| 20260831095503 | 70 | 125 | 1.0 | 2.0 | 0.00 | 0.00 | 0.00 | 91 | 1019.3 |